User: anonymous   Login
Location: Unspecified
(0.0000°N, 0.0000°E)
Time: 04:18:15
(UTC+02:00)
Language:

Centaur D-1AR AC-41 - Orbit

View from above orbital plane
View from above orbital plane
View from above satellite
View from above satellite

Ground track
Ground track

The orbit data is extracted from the following two-line orbital elements,

1 10976U 78068B   16121.50238442 -.00000247  00000-0 -21819-2 0  9999
2 10976  21.8865 345.2356 7174746   5.1139 338.1506  2.22312178307079
Epoch (UTC): 30 April 2016 12:03:26
Eccentricity: 0.7174746
inclination: 21.8865°
perigee height: 628 km
apogee height: 36212 km
right ascension of ascending node: 345.2356°
argument of perigee: 5.1139°
revolutions per day: 2.22312178
mean anomaly at epoch: 338.1506°
orbit number at epoch: 30707

The dashed part of the orbit path shows where the satellite is in the earth's shadow,  

DLR